CCA925 ULLI-EFHK

Flight info

Callsign CCA925
Flight time N/A
Altitude 20000
Route UTETA1A/28R UTETA M60 ATLUM T561 LEDUN
Aircraft B738/M-SDE2E3FGHIRWXY/LB1

Departure

Time 2026-04-30 18:11
Airport Pulkovo Airport (ULLI)

Arrival

Time N/A
Airport Helsinki Vantaa Airport (EFHK)
Time Latitude Longitude Altitude Speed Heading
2026-04-30 17:41 59.80135 30.26853 74 ft 0 kts 107°
2026-04-30 17:57 59.80144 30.26774 65 ft 2 kts 95°
2026-04-30 17:58 59.80126 30.26712 66 ft 0 kts 15°
2026-04-30 18:01 59.80129 30.26713 74 ft 2 kts 15°
2026-04-30 18:02 59.80294 30.26810 66 ft 16 kts 17°
2026-04-30 18:02 59.80377 30.26993 68 ft 10 kts 103°
2026-04-30 18:04 59.80224 30.28029 70 ft 2 kts 107°
2026-04-30 18:05 59.80129 30.28671 66 ft 7 kts 106°
2026-04-30 18:06 59.79974 30.29704 72 ft 29 kts 106°
2026-04-30 18:07 59.79951 30.29862 71 ft 3 kts 106°
2026-04-30 18:08 59.79992 30.30145 68 ft 0 kts 43°
2026-04-30 18:09 59.80051 30.30255 70 ft 13 kts 43°
2026-04-30 18:10 59.80528 30.27568 88 ft 162 kts 286°
2026-04-30 18:11 59.81850 30.18659 3077 ft 184 kts 291°
2026-04-30 18:11 59.83003 30.10646 4597 ft 201 kts 288°
2026-04-30 18:12 59.83829 30.02542 6587 ft 207 kts 286°
2026-04-30 18:13 59.84627 29.96288 6928 ft 256 kts 294°
2026-04-30 18:13 59.83877 29.86374 8873 ft 287 kts 260°
2026-04-30 18:14 59.82639 29.77269 10589 ft 301 kts 263°
2026-04-30 18:15 59.76676 29.28252 16972 ft 373 kts 265°
2026-04-30 18:15 59.73504 29.01279 20167 ft 369 kts 275°
2026-04-30 18:16 59.74193 28.74973 20207 ft 348 kts 285°
2026-04-30 18:16 59.75619 28.14422 20232 ft 351 kts 284°
2026-04-30 18:17 59.75714 28.09552 20211 ft 354 kts 284°
2026-04-30 18:17 59.75807 28.04665 20198 ft 354 kts 284°
2026-04-30 18:17 59.75989 27.94932 20195 ft 352 kts 284°
2026-04-30 18:18 59.76080 27.90083 20196 ft 351 kts 284°
2026-04-30 18:18 59.76239 27.81612 20195 ft 351 kts 284°
2026-04-30 18:18 59.76498 27.68315 20193 ft 347 kts 287°
2026-04-30 18:18 59.76753 27.63813 21300 ft 310 kts 289°
2026-04-30 18:19 59.76988 27.59709 22238 ft 301 kts 291°
2026-04-30 18:19 59.77419 27.55404 21218 ft 332 kts 298°
2026-04-30 18:19 59.78156 27.51098 21003 ft 327 kts 301°
2026-04-30 18:19 59.78928 27.46833 20724 ft 330 kts 301°
2026-04-30 18:20 59.79709 27.42313 20455 ft 331 kts 299°
2026-04-30 18:20 59.80410 27.37973 20250 ft 327 kts 298°
2026-04-30 18:20 59.81111 27.33338 20198 ft 315 kts 298°
2026-04-30 18:20 59.82797 27.21509 19959 ft 293 kts 297°
2026-04-30 18:21 59.85227 27.04300 18283 ft 297 kts 296°
2026-04-30 18:21 59.87377 26.88753 16897 ft 294 kts 295°
2026-04-30 18:21 59.87892 26.84806 16516 ft 295 kts 294°
2026-04-30 18:21 59.88403 26.80860 16156 ft 294 kts 294°
2026-04-30 18:22 59.88915 26.76928 15823 ft 293 kts 294°
2026-04-30 18:22 59.89942 26.69105 15160 ft 291 kts 293°
2026-04-30 18:22 59.90457 26.65206 14831 ft 290 kts 293°
2026-04-30 18:23 59.90971 26.61318 14507 ft 290 kts 293°
2026-04-30 18:23 59.91482 26.57440 14189 ft 289 kts 293°
2026-04-30 18:23 59.91992 26.53573 13849 ft 288 kts 292°
2026-04-30 18:23 59.92499 26.49716 13539 ft 287 kts 292°
2026-04-30 18:24 59.93502 26.42063 12889 ft 284 kts 292°
2026-04-30 18:24 59.93997 26.38277 12548 ft 283 kts 291°
2026-04-30 18:24 59.94325 26.35758 12351 ft 282 kts 291°
2026-04-30 18:25 59.94981 26.30714 11929 ft 280 kts 291°
2026-04-30 18:25 59.95792 26.24469 11634 ft 281 kts 291°
2026-04-30 18:25 59.96449 26.19397 11600 ft 282 kts 291°
2026-04-30 18:26 59.97249 26.13162 11586 ft 278 kts 291°
2026-04-30 18:26 59.97730 26.09415 11594 ft 279 kts 291°
2026-04-30 18:26 59.98313 26.05712 11353 ft 281 kts 298°
2026-04-30 18:27 59.99905 25.98554 10669 ft 282 kts 300°
2026-04-30 18:27 60.00727 25.95000 10320 ft 281 kts 300°
2026-04-30 18:28 60.02325 25.88125 10197 ft 265 kts 300°
2026-04-30 18:28 60.03097 25.84793 10192 ft 265 kts 300°
2026-04-30 18:28 60.04606 25.78247 10169 ft 250 kts 300°
2026-04-30 18:29 60.05313 25.75140 10171 ft 241 kts 300°
2026-04-30 18:29 60.06179 25.65023 10200 ft 255 kts 281°
2026-04-30 18:30 60.06423 25.57906 10183 ft 254 kts 280°
2026-04-30 18:30 60.06648 25.50976 10183 ft 250 kts 280°
2026-04-30 18:31 60.06759 25.47489 10186 ft 251 kts 280°
2026-04-30 18:31 60.06983 25.40477 10184 ft 253 kts 280°
2026-04-30 18:32 60.08015 25.34029 9870 ft 247 kts 308°
2026-04-30 18:32 60.08982 25.31160 9469 ft 249 kts 310°
2026-04-30 18:32 60.10995 25.25417 8691 ft 254 kts 310°
2026-04-30 18:33 60.12028 25.22522 8310 ft 256 kts 310°
2026-04-30 18:33 60.14141 25.16694 7554 ft 260 kts 310°
2026-04-30 18:33 60.15219 25.13765 7182 ft 262 kts 310°
2026-04-30 18:34 60.16308 25.10830 6816 ft 263 kts 310°
2026-04-30 18:34 60.18533 25.04930 6043 ft 265 kts 313°
2026-04-30 18:34 60.19975 25.02709 5633 ft 262 kts 339°
2026-04-30 18:35 60.21737 25.02160 5258 ft 263 kts
2026-04-30 18:35 60.23441 25.03420 5032 ft 262 kts 32°
2026-04-30 18:35 60.24810 25.05732 4992 ft 252 kts 39°
2026-04-30 18:36 60.27230 25.10354 4975 ft 228 kts 40°
2026-04-30 18:36 60.28361 25.12562 4989 ft 224 kts 40°
2026-04-30 18:36 60.30599 25.16957 5005 ft 226 kts 40°
2026-04-30 18:37 60.31724 25.19175 5011 ft 227 kts 40°
2026-04-30 18:37 60.32854 25.21406 5006 ft 227 kts 40°
2026-04-30 18:37 60.33986 25.23644 5006 ft 228 kts 40°
2026-04-30 18:37 60.35118 25.25885 4999 ft 228 kts 40°
2026-04-30 18:38 60.36249 25.28124 5003 ft 228 kts 40°
2026-04-30 18:38 60.37378 25.30367 4996 ft 228 kts 40°
2026-04-30 18:38 60.38505 25.32612 4998 ft 227 kts 40°
2026-04-30 18:38 60.39624 25.34848 4997 ft 224 kts 40°
2026-04-30 18:39 60.40717 25.37046 4990 ft 218 kts 40°
2026-04-30 18:39 60.41783 25.39203 4987 ft 215 kts 40°
2026-04-30 18:39 60.42838 25.41341 5003 ft 214 kts 40°
2026-04-30 18:39 60.43895 25.43488 5000 ft 216 kts 40°
2026-04-30 18:40 60.44956 25.45643 5011 ft 216 kts 40°
2026-04-30 18:40 60.46017 25.47805 5007 ft 217 kts 40°
2026-04-30 18:40 60.47081 25.49977 5006 ft 217 kts 40°
2026-04-30 18:40 60.48145 25.52154 5010 ft 218 kts 40°
2026-04-30 18:41 60.49209 25.54332 5012 ft 218 kts 40°
2026-04-30 18:41 60.50277 25.56519 5010 ft 218 kts 40°
2026-04-30 18:41 60.51343 25.58703 5006 ft 218 kts 40°